Weather History for KDIJ - March, 2014

Change the Weather History Date:

Tuesday, March 25, 2014

  Actual Average (KRXE) Record (KRXE)
Temperature  
Mean Temperature 34 °F 38 °F  
Max Temperature 46 °F 49 °F 69 °F (2012)
Min Temperature 23 °F 27 °F 10 °F (2013)
Degree Days  
Heating Degree Days 30 27  
Month to date heating degree days 801  
Since 1 July heating degree days 6774  
Cooling Degree Days 0 0  
Month to date cooling degree days 0  
Year to date cooling degree days 0  
Moisture  
Dew Point 19 °F    
Average Humidity 49    
Maximum Humidity 69    
Minimum Humidity 36    
Precipitation  
Precipitation 0.00 in 0.04 in 0.34 in (1989)
Month to date precipitation 0.78  
Year to date precipitation 2.35  
Sea Level Pressure  
Sea Level Pressure 29.89 in    
Wind  
Wind Speed 8 mph (SE)    
Max Wind Speed 15 mph    
Max Gust Speed -    
Visibility 9 miles    
Events      
T = Trace of Precipitation, MM = Missing Value Source: NWS Daily Summary

Daily Weather History Graph

Daily Weather History Graph

Search for Another Location

Airport or City:

Trip Planner

Search our weather history database for the weather conditions in past years. The results will help you decide how hot, cold, wet, or windy it might be!

Date:

Astronomy

Mar. 25, 2014 Rise Set
Actual Time 7:18 AM MDT 7:42 PM MDT
Civil Twilight 6:49 AM MDT 8:11 PM MDT
Nautical Twilight 6:15 AM MDT 8:45 PM MDT
Astronomical Twilight 5:40 AM MDT 9:20 PM MDT
Moon 3:52 AM MDT (3/25) 2:08 PM MDT (3/25)
Length of Visible Light 13h 22m
Length of Day
12h 24m
Waning Crescent, 31% of the Moon is Illuminated
Mar 25
Waning Crescent
Mar 30
New
Apr 7
First Quarter
Apr 15
Full
Apr 22
Last Quarter

Hourly Weather History & Observations

Time (MDT) Temp. Windchill Dew Point Humidity Pressure Visibility Wind Dir Wind Speed Gust Speed Precip Events Conditions
12:56 AM 29.1 °F 22.1 °F 17.1 °F 61% 30.12 in 10.0 mi ESE 6.9 mph - N/A   Clear
1:56 AM 28.0 °F 20.8 °F 15.1 °F 58% 30.11 in 10.0 mi ESE 6.9 mph - N/A   Clear
2:56 AM 23.0 °F 15.8 °F 14.0 °F 68% 30.12 in 10.0 mi ESE 5.8 mph - N/A   Clear
3:56 AM 29.1 °F 21.3 °F 14.0 °F 53% 30.08 in 10.0 mi SSE 8.1 mph - N/A   Clear
4:56 AM 29.1 °F 22.1 °F 14.0 °F 53% 30.07 in 10.0 mi SE 6.9 mph - N/A   Clear
5:56 AM 24.1 °F 16.0 °F 12.0 °F 60% 30.08 in 10.0 mi ESE 6.9 mph - N/A   Clear
6:56 AM 24.1 °F 17.0 °F 14.0 °F 65% 30.09 in 9.0 mi East 5.8 mph - N/A   Clear
7:56 AM 24.1 °F 15.2 °F 15.1 °F 69% 30.09 in 8.0 mi East 8.1 mph - N/A   Clear
8:56 AM 28.0 °F 21.7 °F 18.1 °F 66% 30.06 in 8.0 mi East 5.8 mph - N/A   Clear
9:56 AM 34.9 °F 32.0 °F 23.0 °F 62% 30.04 in 9.0 mi ENE 3.5 mph - N/A   Clear
10:56 AM 41.9 °F 36.9 °F 22.1 °F 45% 29.99 in 8.0 mi SSE 8.1 mph - N/A   Clear
11:56 AM 43.9 °F 39.9 °F 20.1 °F 39% 29.94 in 8.0 mi South 6.9 mph - N/A   Clear
12:56 PM 45.0 °F 41.8 °F 19.0 °F 36% 29.91 in 9.0 mi Variable 5.8 mph - N/A   Partly Cloudy
1:56 PM 45.0 °F 41.2 °F 20.1 °F 37% 29.87 in 10.0 mi SE 6.9 mph - N/A   Partly Cloudy
2:56 PM 45.9 °F 42.3 °F 22.1 °F 39% 29.85 in 0.8 mi SE 6.9 mph - N/A   Haze
3:07 PM 46.4 °F 40.7 °F 21.2 °F 37% 29.88 in 7.0 mi ESE 12.7 mph - N/A   Partly Cloudy
3:56 PM 45.9 °F 39.4 °F 21.0 °F 37% 29.78 in 10.0 mi South 15.0 mph - N/A   Clear
4:56 PM 45.9 °F 42.3 °F 23.0 °F 41% 29.74 in 9.0 mi SSE 6.9 mph - N/A   Clear
5:56 PM 46.9 °F - 21.0 °F 36% 29.72 in 9.0 mi South 8.1 mph - N/A   Clear
6:56 PM 43.9 °F 38.3 °F 22.1 °F 42% 29.69 in 9.0 mi South 10.4 mph - N/A   Clear
7:56 PM 43.0 °F 37.2 °F 20.1 °F 40% 29.66 in 10.0 mi South 10.4 mph - N/A   Clear
8:56 PM 37.9 °F 30.9 °F 21.0 °F 51% 29.65 in 10.0 mi SSE 10.4 mph - N/A   Clear
9:56 PM 37.9 °F 30.5 °F 21.0 °F 51% 29.59 in 9.0 mi SSE 11.5 mph - N/A   Clear
10:56 PM 37.9 °F 30.0 °F 20.1 °F 49% 29.55 in 9.0 mi SSE 12.7 mph - N/A   Clear
11:56 PM 38.8 °F 33.8 °F 16.2 °F 40% 29.52 in 10.0 mi SSE 6.9 mph - N/A   Clear